[[{"header":{"parameterUnit":"m.s-1","parameterCategory":1,"la1":30.2991,"la2":30.254,"lo1":-89.0895,"lo2":-89.0444,"dy":0.0017,"dx":0.0017,"nx":28,"ny":28,"refTime":"2024-06-22T21:00:00:Z","depth":0,"parameterNumber":2,"parameterNumberName":"U-component_of_WINDS"},"data":[0,0,0,0,0,0,0,0,0,0,0,0,0,0,0,0,0,0,0,0,0,0,0,0,0,0,0,0,0,0,0,0,0,0,0,0,0,0,0,0,0,0,0,0,0,0,0,0,0,0,0,0,0,0,0,0,0,0,1.4672,1.4673,0,1.4724,1.4724,1.4725,1.4717,1.4717,1.4716,1.4715,1.4765,1.4768,1.477,0,0,0,0,0,0,0,0,0,0,0,0,0,1.4564,1.4566,1.4672,1.4673,1.4674,1.4724,1.4724,1.4725,1.4718,1.4717,1.4716,1.4715,1.4765,1.4767,1.477,0,0,0,0,0,0,0,0,0,0,0,0,0,1.4613,1.4567,1.4672,1.4676,1.4677,1.4724,1.4724,1.4725,1.4718,1.4717,1.4715,1.4714,1.4764,1.4767,1.477,1.4816,0,0,1.478,1.4781,0,0,0,0,0,0,0,0,1.461,1.4617,1.4675,1.4676,1.4677,1.4713,1.4705,1.4756,1.4718,1.4702,1.4715,1.4713,1.4749,1.4753,1.4766,1.4818,1.482,1.478,1.4782,1.4784,1.4785,0,0,0,0,0,0,0,1.4607,1.4615,1.4693,1.4676,1.4677,1.4674,1.4679,1.4714,1.4732,1.4704,1.4703,1.4709,1.4749,1.4763,1.4767,1.4821,1.478,1.4783,1.4785,1.4786,1.4911,1.4912,0,0,0,0,0,0,1.4603,1.4612,1.4691,1.4694,1.464,1.4677,1.4683,1.4703,1.4732,1.4735,1.471,1.4709,1.4758,1.4763,1.4769,1.4822,1.4784,1.4787,1.4788,1.4909,1.4911,1.4912,0,0,0,0,0,0,1.4601,1.461,1.4689,1.4653,1.4663,1.468,1.4702,1.4704,1.4718,1.4737,1.474,1.4721,1.4757,1.4764,1.4804,1.4823,1.4788,1.4791,1.4908,1.491,1.4912,1.493,0,0,0,0,0,0,1.4598,1.4609,1.4628,1.4653,1.4665,1.4724,1.4704,1.4706,1.4724,1.4722,1.4748,1.4751,1.4756,1.4799,1.4807,1.4827,1.4793,1.4906,1.4909,1.4911,1.4928,1.4932,1.4936,0,0,0,0,0,1.4594,1.4631,1.4629,1.4638,1.4688,1.4726,1.4732,1.4738,1.4725,1.4743,1.4755,1.475,1.482,1.4803,1.4812,1.4834,1.4905,1.4908,1.4911,1.4926,1.4931,1.4936,0,0,0,0,0,0,1.4607,1.4634,1.4632,1.4679,1.47,1.4724,1.4747,1.4745,1.4769,1.4767,1.4773,1.4779,1.4818,1.483,1.481,1.4878,1.486,1.4865,1.4869,1.4874,1.4879,1.4874,1.4796,0,0,0,0,0,1.4615,1.4644,1.4666,1.4705,1.4716,1.473,1.4746,1.4749,1.4771,1.478,1.4795,1.4815,1.4841,1.4859,1.4884,1.493,1.4934,1.4949,1.4953,1.4957,1.496,1.4983,1.4989,1.4923,1.4923,1.4922,0,0,1.4633,1.4651,1.4669,1.4708,1.4725,1.4753,1.4737,1.4768,1.4789,1.4784,1.4822,1.4834,1.4857,1.4899,1.4918,1.491,1.498,1.4961,1.4963,1.4965,1.4987,1.4993,1.4998,1.4925,1.4924,1.4924,0,0,1.4678,1.4697,1.473,1.4747,1.4772,1.4781,1.4789,1.4813,1.482,1.4859,1.4855,1.4879,1.4925,1.4941,1.4955,1.5005,1.5,1.5013,1.5036,1.5058,1.5063,1.5068,1.5083,1.5089,1.5017,1.5018,1.5018,0,1.4697,1.474,1.4747,1.4778,1.4795,1.4792,1.4825,1.484,1.4873,1.4883,1.4874,1.493,1.4946,1.499,1.5002,1.5015,1.5022,1.501,1.5062,1.5067,1.5071,1.5086,1.5092,1.5019,1.5019,1.5019,1.5018,0,1.476,1.479,1.4814,1.4845,1.4864,1.4896,1.4906,1.4925,1.4926,1.4935,1.4973,1.4991,1.5019,1.5031,1.5032,1.5075,1.5068,1.5061,1.5043,1.5078,1.5092,1.5099,1.5021,1.502,1.502,1.5019,0,0,1.4816,1.485,1.4858,1.4871,1.4898,1.4921,1.4951,1.4979,1.4994,1.5016,1.5041,1.5079,1.5071,1.5087,1.509,1.511,1.5145,1.5099,1.5099,1.5105,1.5191,1.5195,1.5202,1.5143,1.5144,1.5145,1.5188,0,1.4863,1.4918,1.4924,1.4973,1.4999,1.4996,1.5023,1.5041,1.505,1.5073,1.5083,1.5109,1.5098,1.5107,1.5126,1.5137,1.5162,1.5134,1.5164,1.5165,1.5157,1.521,1.5215,1.5255,1.5194,1.5195,1.5196,0,1.4925,1.4948,1.5,1.5021,1.5032,1.5056,1.5081,1.5104,1.5124,1.5129,1.5146,1.5146,1.5176,1.5158,1.5198,1.5179,1.5192,1.5199,1.52,1.5202,1.5181,1.5211,1.5268,1.5274,1.5205,1.5204,1.5203,0,1.4958,1.5002,1.5038,1.5049,1.5076,1.5092,1.5104,1.5123,1.5139,1.516,1.517,1.5195,1.5208,1.5227,1.5233,1.522,1.5272,1.5255,1.5276,1.5275,1.5286,1.5285,1.5344,1.5297,1.5297,1.5296,1.5296,0,1.5008,1.5039,1.5053,1.5074,1.5108,1.5115,1.5148,1.5158,1.5175,1.5198,1.5197,1.5218,1.5226,1.5248,1.5253,1.5284,1.529,1.5294,1.5295,1.5293,1.5293,1.5301,1.5297,1.5298,1.5298,1.5297,1.5297,0,1.505,1.5061,1.5099,1.5121,1.5127,1.5151,1.5169,1.5189,1.5197,1.5226,1.5233,1.5246,1.5271,1.528,1.5311,1.5314,1.535,1.5349,1.5343,1.5343,1.5362,1.5359,1.5427,1.5435,1.5384,1.5385,1.5385,0,1.5081,1.5105,1.5129,1.5144,1.5156,1.5181,1.5197,1.5204,1.522,1.5244,1.5261,1.5286,1.5307,1.5348,1.5359,1.5382,1.5381,1.5403,1.5384,1.5381,1.5379,1.5376,1.5378,1.5406,1.5406,1.5407,1.5407,0,1.5134,1.5138,1.5161,1.5186,1.5205,1.5224,1.5243,1.5256,1.5265,1.5283,1.5309,1.5325,1.5356,1.5381,1.5404,1.5415,1.5412,1.5413,1.5418,1.5416,1.5411,1.5412,1.5351,1.5411,1.5411,1.541,1.541,1.541,1.517,1.519,1.521,1.5235,1.525,1.5267,1.5287,1.5297,1.532,1.5346,1.5348,1.5376,1.5394,1.5425,1.5436,1.5457,1.5451,1.5459,1.5461,1.5463,1.5463,1.5409,1.5462,1.5462,1.5461,1.5461,1.5461,0,1.5222,1.5234,1.5257,1.5283,1.5303,1.5299,1.5319,1.5335,1.536,1.5377,1.5397,1.5426,1.5449,1.5463,1.5485,1.5499,1.5498,1.5505,1.5503,1.5505,1.5469,1.5461,1.5505,1.5505,1.5505,1.5505,1.5505,1.5505,1.525,1.5283,1.5289,1.5328,1.534,1.5368,1.5379,1.5394,1.5408,1.544,1.546,1.5468,1.5483,1.5507,1.5528,1.5531,1.5538,1.5545,1.5547,1.5513,1.5508,1.5504,1.5496,1.5547,1.5547,1.5582,1.5582,1.5583]},{"header":{"parameterUnit":"m.s-1","parameterCategory":1,"la1":30.2991,"la2":30.254,"lo1":-89.0895,"lo2":-89.0444,"dy":0.0017,"dx":0.0017,"nx":28,"ny":28,"refTime":"2024-06-22T21:00:00:Z","depth":0,"parameterNumber":3,"parameterNumberName":"V-component_of_WINDS"},"data":[0,0,0,0,0,0,0,0,0,0,0,0,0,0,0,0,0,0,0,0,0,0,0,0,0,0,0,0,0,0,0,0,0,0,0,0,0,0,0,0,0,0,0,0,0,0,0,0,0,0,0,0,0,0,0,0,0,0,5.3735,5.3736,0,5.377,5.3771,5.3771,5.369,5.3687,5.3685,5.3682,5.3714,5.3717,5.372,0,0,0,0,0,0,0,0,0,0,0,0,0,5.3593,5.3596,5.3735,5.3736,5.3736,5.377,5.3771,5.3771,5.369,5.3687,5.3684,5.3681,5.3713,5.3716,5.372,0,0,0,0,0,0,0,0,0,0,0,0,0,5.3644,5.3597,5.3735,5.37,5.3697,5.377,5.3771,5.3771,5.3691,5.3687,5.3683,5.368,5.3711,5.3716,5.3721,5.3828,0,0,5.3736,5.3738,0,0,0,0,0,0,0,0,5.3641,5.3649,5.3705,5.3703,5.37,5.3722,5.3732,5.379,5.3692,5.3693,5.3682,5.3678,5.3719,5.3723,5.3738,5.3829,5.3831,5.3736,5.3739,5.3741,5.3742,0,0,0,0,0,0,0,5.3638,5.3647,5.3749,5.3706,5.3703,5.3681,5.3684,5.3742,5.3727,5.3693,5.3687,5.3693,5.3717,5.3734,5.3738,5.3831,5.3736,5.374,5.3743,5.3745,5.401,5.4014,0,0,0,0,0,0,5.3639,5.3645,5.3748,5.375,5.366,5.3686,5.369,5.3719,5.3727,5.3724,5.3696,5.3689,5.3727,5.3733,5.3739,5.3863,5.3741,5.3746,5.3748,5.4006,5.4011,5.4015,0,0,0,0,0,0,5.3637,5.3649,5.3746,5.3696,5.3707,5.3693,5.3726,5.3721,5.3738,5.3729,5.3725,5.3716,5.3724,5.3732,5.3806,5.3863,5.3748,5.3752,5.4001,5.4007,5.4013,5.4114,0,0,0,0,0,0,5.3633,5.3649,5.3691,5.3698,5.371,5.3815,5.373,5.3725,5.3747,5.3738,5.3747,5.3744,5.3722,5.38,5.3811,5.3868,5.3756,5.3996,5.4004,5.4011,5.4106,5.4123,5.4138,0,0,0,0,0,5.3628,5.3717,5.3693,5.3706,5.3762,5.3819,5.3825,5.3799,5.3752,5.3793,5.3787,5.3744,5.3856,5.3808,5.382,5.3879,5.3992,5.4001,5.401,5.4098,5.412,5.4138,0,0,0,0,0,0,5.3716,5.3718,5.3691,5.3786,5.3803,5.3805,5.3856,5.3823,5.3852,5.3842,5.3807,5.381,5.389,5.3892,5.3839,5.3982,5.3915,5.3928,5.3978,5.3998,5.4014,5.4011,5.376,0,0,0,0,0,5.3747,5.3795,5.3792,5.3876,5.3886,5.387,5.3893,5.3872,5.3887,5.3894,5.3893,5.3909,5.3947,5.3973,5.4008,5.4106,5.4105,5.4153,5.4169,5.4182,5.4193,5.4243,5.4263,5.4046,5.4046,5.4045,0,0,5.3811,5.3817,5.3849,5.3894,5.3904,5.3952,5.3876,5.3931,5.3965,5.3901,5.3971,5.3972,5.3986,5.4073,5.4111,5.4077,5.4253,5.4194,5.4205,5.4208,5.4255,5.4275,5.4294,5.4052,5.4051,5.405,0,0,5.395,5.3961,5.4031,5.4044,5.4061,5.405,5.4067,5.4074,5.4072,5.4142,5.4094,5.4134,5.4201,5.4213,5.4228,5.4372,5.4333,5.4384,5.4468,5.4518,5.4535,5.455,5.46,5.4618,5.4395,5.4395,5.4396,0,5.4027,5.4099,5.4071,5.4128,5.4148,5.4094,5.4163,5.4176,5.4204,5.4218,5.418,5.4263,5.4269,5.4357,5.4392,5.4406,5.4423,5.4383,5.4535,5.455,5.4563,5.461,5.4629,5.4401,5.4401,5.44,5.4399,0,5.4191,5.4241,5.4295,5.4325,5.4351,5.4414,5.4394,5.4423,5.4399,5.4391,5.4462,5.4468,5.4502,5.4521,5.4498,5.4605,5.4584,5.4541,5.4473,5.4591,5.4634,5.4652,5.441,5.4408,5.4406,5.4405,0,0,5.4387,5.44,5.442,5.4432,5.4447,5.4485,5.4544,5.4579,5.4605,5.4625,5.4673,5.4731,5.4692,5.4709,5.4686,5.473,5.4841,5.4682,5.4681,5.471,5.4958,5.4989,5.5011,5.4816,5.482,5.4822,5.4956,0,5.4524,5.4629,5.4605,5.4707,5.4752,5.4701,5.4752,5.4766,5.476,5.4796,5.4788,5.483,5.4775,5.4785,5.4826,5.4819,5.4891,5.4809,5.4859,5.4861,5.4856,5.5034,5.5067,5.5193,5.4973,5.4976,5.4978,0,5.4698,5.4727,5.4834,5.4841,5.4859,5.4906,5.4935,5.4971,5.4985,5.4977,5.4996,5.4965,5.5021,5.4954,5.5031,5.4976,5.4995,5.4995,5.4999,5.5001,5.4926,5.504,5.5233,5.5252,5.5005,5.5003,5.5001,0,5.4829,5.4894,5.4966,5.4978,5.4988,5.5022,5.5027,5.5038,5.506,5.5085,5.5098,5.513,5.5146,5.517,5.5147,5.5101,5.5228,5.5158,5.5221,5.5222,5.5249,5.5248,5.5447,5.5264,5.5264,5.5263,5.5263,0,5.4984,5.5051,5.5025,5.5069,5.5142,5.5113,5.5185,5.5185,5.5194,5.5236,5.5193,5.5233,5.5201,5.5237,5.5219,5.5285,5.5293,5.5287,5.5282,5.5291,5.5291,5.5301,5.5292,5.5268,5.5267,5.5266,5.5265,0,5.5142,5.5128,5.5202,5.5206,5.5208,5.5262,5.5263,5.5303,5.5294,5.5347,5.5358,5.5343,5.5384,5.5363,5.5405,5.5393,5.5478,5.5461,5.5474,5.5469,5.5532,5.5526,5.5745,5.5771,5.5572,5.5574,5.5575,0,5.5242,5.5292,5.5301,5.5327,5.5335,5.5377,5.54,5.5372,5.5397,5.5416,5.5454,5.5491,5.5519,5.5586,5.5578,5.5609,5.5592,5.5666,5.5596,5.5603,5.5591,5.5588,5.5592,5.568,5.5682,5.5684,5.5686,0,5.5419,5.5409,5.5444,5.5476,5.5505,5.5528,5.5548,5.5571,5.5544,5.5574,5.5616,5.5638,5.5681,5.5717,5.5745,5.5748,5.5712,5.5708,5.5724,5.5733,5.5738,5.5735,5.5511,5.5703,5.5701,5.57,5.5699,5.5698,5.555,5.5592,5.5605,5.5644,5.5657,5.5676,5.5714,5.5709,5.5744,5.5777,5.5759,5.5807,5.5818,5.5851,5.5859,5.5896,5.5866,5.5889,5.5895,5.5901,5.5909,5.5733,5.5901,5.59,5.59,5.5899,5.5899,0,5.5724,5.573,5.5767,5.5796,5.5827,5.5792,5.5812,5.5839,5.5883,5.5897,5.5926,5.5973,5.6008,5.6003,5.6034,5.6064,5.6049,5.6074,5.607,5.6072,5.5934,5.5917,5.6086,5.6086,5.6086,5.6086,5.6086,5.6086,5.5818,5.5887,5.5878,5.5952,5.5956,5.6004,5.6019,5.6035,5.6046,5.6101,5.6131,5.6128,5.6133,5.6165,5.6195,5.6193,5.6206,5.6237,5.6228,5.61,5.6081,5.6064,5.6047,5.624,5.624,5.6362,5.6363,5.6364]}]]